Weather History for Girona, Spain

Change the Weather History Date:

Monday, March 31, 2014

  Actual Average Record
Temperature  
Mean Temperature 58 °F -  
Max Temperature 67 °F 66 °F 73 °F (2006)
Min Temperature 50 °F 44 °F 33 °F (1997)
Degree Days  
Heating Degree Days 6    
Growing Degree Days 8 (Base 50)    
Moisture  
Dew Point 53 °F    
Average Humidity 89    
Maximum Humidity 100    
Minimum Humidity 53    
Precipitation  
Precipitation 0.00 in 0.10 in - ()
Sea Level Pressure  
Sea Level Pressure 29.97 in    
Wind  
Wind Speed 4 mph ()    
Max Wind Speed 15 mph    
Max Gust Speed -    
Visibility 6.2 miles    
Events      
Averages and records for this station are not official NWS values.
T = Trace of Precipitation, MM = Missing Value Source: Averaged Metar Reports

Daily Weather History Graph

Daily Weather History Graph

Search for Another Location

Airport:

Trip Planner

Search our weather history database for the weather conditions in past years. The results will help you decide how hot, cold, wet, or windy it might be!

Date:

Astronomy

Mar. 31, 2014 Rise Set
Actual Time 7:33 AM CEST 8:13 PM CEST
Civil Twilight 7:05 AM CEST 8:41 PM CEST
Nautical Twilight 6:32 AM CEST 9:14 PM CEST
Astronomical Twilight 5:58 AM CEST 9:49 PM CEST
Moon 7:46 AM CEST (3/31) 9:16 PM CEST (3/31)
Length of Visible Light 13h 35m
Length of Day
12h 39m
New Moon, 1% of the Moon is Illuminated
Mar 31
New Moon
Apr 7
First Quarter
Apr 15
Full
Apr 22
Last Quarter
Apr 29
New

Hourly Weather History & Observations

Time (CEST) Temp. Dew Point Humidity Pressure Visibility Wind Dir Wind Speed Gust Speed Precip Events Conditions
12:00 AM 54 °F 53 °F 96% 29.99 in - North 4.6 mph - -  
12:00 AM 53.6 °F 53.6 °F 100% 30.01 in 3.7 mi North 3.5 mph - N/A   Mostly Cloudy
12:30 AM 53.6 °F 53.6 °F 100% 30.01 in 3.7 mi North 3.5 mph - N/A   Mostly Cloudy
1:00 AM 54 °F 53 °F 97% 29.99 in - North 3.5 mph - -  
1:00 AM 53.6 °F 53.6 °F 100% 30.01 in 3.7 mi Variable 2.3 mph - N/A   Mostly Cloudy
1:30 AM 53.6 °F 53.6 °F 100% 30.01 in 3.7 mi Variable 1.2 mph - N/A   Mostly Cloudy
2:00 AM 54 °F 53 °F 95% 29.99 in - North 2.3 mph - -  
2:00 AM 53.6 °F 51.8 °F 94% 29.98 in 3.7 mi Variable 2.3 mph - N/A   Mostly Cloudy
2:30 AM 53.6 °F 51.8 °F 94% 29.98 in 5.0 mi North 2.3 mph - N/A   Mostly Cloudy
3:00 AM 53 °F 53 °F 99% 29.98 in - North 1.2 mph - -   Unknown Precipitation
3:00 AM 53.6 °F 51.8 °F 94% 29.98 in 5.0 mi Variable 1.2 mph - N/A   Mostly Cloudy
4:00 AM 53 °F 53 °F 99% 29.96 in - NNW 1.2 mph - -  
4:00 AM 53.6 °F 51.8 °F 94% 29.98 in 5.0 mi Variable 1.2 mph - N/A   Mostly Cloudy
4:30 AM 53.6 °F 51.8 °F 94% 29.95 in 5.0 mi Variable 2.3 mph - N/A   Mostly Cloudy
5:00 AM 53 °F 52 °F 97% 29.96 in 5 mi North 3.5 mph - -   Mist
5:00 AM 51.8 °F 51.8 °F 100% 29.95 in 5.0 mi Variable 2.3 mph - N/A   Mostly Cloudy
5:30 AM 53.6 °F 51.8 °F 94% 29.98 in 5.0 mi Calm Calm - N/A   Mostly Cloudy
6:00 AM 53 °F 53 °F 98% 29.96 in - North 2.3 mph - -  
6:00 AM 51.8 °F 51.8 °F 100% 29.95 in 5.0 mi Variable 2.3 mph - N/A   Mostly Cloudy
6:30 AM 53.6 °F 51.8 °F 94% 29.98 in 6.2 mi Variable 1.2 mph - N/A   Mostly Cloudy
7:00 AM 53 °F 53 °F 98% 29.96 in - North 2.3 mph - -  
7:00 AM 51.8 °F 51.8 °F 100% 29.98 in 6.2 mi Variable 1.2 mph - N/A   Mostly Cloudy
7:30 AM 51.8 °F 51.8 °F 100% 29.98 in 6.2 mi Variable 1.2 mph - N/A   Mostly Cloudy
8:00 AM 53 °F 52 °F 95% 29.97 in 6 mi Calm Calm - -   Overcast
8:00 AM 51.8 °F 51.8 °F 100% 29.98 in 6.2 mi Calm Calm - N/A   Mostly Cloudy
8:30 AM 51.8 °F 51.8 °F 100% 29.98 in 6.2 mi Variable 1.2 mph - N/A   Mostly Cloudy
9:00 AM 53 °F 52 °F 97% 29.98 in - SSW 1.2 mph - -  
9:00 AM 53.6 °F 51.8 °F 94% 29.98 in 6.2 mi Calm Calm - N/A   Mostly Cloudy
9:30 AM 53.6 °F 51.8 °F 94% 29.98 in 6.2 mi NNE 1.2 mph - N/A   Mostly Cloudy
10:00 AM 56 °F 54 °F 92% 29.98 in - Calm Calm - -  
10:00 AM 55.4 °F 53.6 °F 94% 29.98 in 6.2 mi Calm Calm - N/A   Mostly Cloudy
10:30 AM 55.4 °F 53.6 °F 94% 30.01 in 6.2 mi Variable 2.3 mph - N/A   Mostly Cloudy
11:00 AM 59 °F 54 °F 79% 29.99 in 12 mi East 2.3 mph - -   Overcast
11:00 AM 57.2 °F 53.6 °F 88% 30.01 in 6.2 mi Variable 1.2 mph - N/A   Mostly Cloudy
11:30 AM 59.0 °F 53.6 °F 82% 30.01 in 6.2 mi Calm Calm - N/A   Mostly Cloudy
12:00 PM 61 °F 55 °F 73% 29.99 in - South 2.3 mph - -  
12:00 PM 59.0 °F 53.6 °F 82% 30.01 in 6.2 mi Variable 1.2 mph - N/A   Mostly Cloudy
12:30 PM 60.8 °F 55.4 °F 82% 30.01 in 6.2 mi SSW 3.5 mph - N/A   Mostly Cloudy
1:00 PM 64 °F 56 °F 68% 29.98 in - South 4.6 mph - -  
1:00 PM 60.8 °F 53.6 °F 77% 30.01 in 6.2 mi South 3.5 mph - N/A   Mostly Cloudy
1:30 PM 62.6 °F 55.4 °F 77% 29.98 in 6.2 mi South 3.5 mph - N/A   Mostly Cloudy
2:00 PM 67 °F 54 °F 53% 29.96 in 12 mi South 5.8 mph - -   Mostly Cloudy
2:00 PM 64.4 °F 55.4 °F 73% 29.98 in 6.2 mi South 4.6 mph - N/A   Mostly Cloudy
2:30 PM 62.6 °F 51.8 °F 68% 29.98 in 6.2 mi South 4.6 mph - N/A   Mostly Cloudy
3:00 PM 64 °F 55 °F 64% 29.95 in - SSW 11.5 mph - -  
3:00 PM 62.6 °F 55.4 °F 77% 29.98 in 6.2 mi SSW 10.4 mph - N/A   Mostly Cloudy
3:30 PM 60.8 °F 55.4 °F 82% 29.98 in 6.2 mi South 11.5 mph - N/A   Overcast
4:00 PM 61 °F 55 °F 73% 29.94 in - SSW 11.5 mph - -  
4:00 PM 59.0 °F 53.6 °F 82% 29.95 in 6.2 mi SSW 11.5 mph - N/A   Overcast
4:30 PM 59.0 °F 55.4 °F 88% 29.95 in 6.2 mi South 9.2 mph - N/A   Mostly Cloudy
5:00 PM 61 °F 55 °F 75% 29.93 in 9 mi South 13.8 mph - -   Overcast
5:00 PM 59.0 °F 55.4 °F 88% 29.95 in 6.2 mi South 13.8 mph - N/A   Mostly Cloudy
5:30 PM 59.0 °F 53.6 °F 82% 29.95 in 6.2 mi South 11.5 mph - N/A   Mostly Cloudy
6:00 PM 61 °F 55 °F 76% 29.93 in - South 12.7 mph - -  
6:00 PM 59.0 °F 53.6 °F 82% 29.95 in 6.2 mi South 11.5 mph - N/A   Mostly Cloudy
6:30 PM 59.0 °F 53.6 °F 82% 29.95 in 6.2 mi South 13.8 mph - N/A   Scattered Clouds
7:00 PM 59 °F 54 °F 77% 29.93 in - South 15.0 mph - -  
7:00 PM 57.2 °F 53.6 °F 88% 29.95 in 6.2 mi SSW 12.7 mph - N/A   Partly Cloudy
7:30 PM 55.4 °F 53.6 °F 94% 29.95 in 6.2 mi South 13.8 mph - N/A   Scattered Clouds
8:00 PM 56 °F 53 °F 87% 29.94 in 16 mi South 10.4 mph - -   Scattered Clouds
8:00 PM 55.4 °F 53.6 °F 94% 29.95 in 6.2 mi South 9.2 mph - N/A   Scattered Clouds
8:30 PM 55.4 °F 51.8 °F 88% 29.95 in 6.2 mi South 9.2 mph - N/A   Scattered Clouds
9:00 PM 53 °F 52 °F 95% 29.95 in - South 8.1 mph - -  
9:00 PM 53.6 °F 51.8 °F 94% 29.95 in 6.2 mi South 8.1 mph - N/A   Scattered Clouds
9:30 PM 51.8 °F 51.8 °F 100% 29.95 in 6.2 mi South 6.9 mph - N/A   Scattered Clouds
10:00 PM 52 °F 51 °F 96% 29.96 in - South 5.8 mph - -  
10:00 PM 51.8 °F 51.8 °F 100% 29.98 in 6.2 mi SSE 4.6 mph - N/A   Scattered Clouds
10:30 PM 51.8 °F 50.0 °F 94% 29.98 in 6.2 mi South 8.1 mph - N/A   Scattered Clouds
11:00 PM 51 °F 50 °F 95% 29.97 in 6 mi WSW 2.3 mph - -   Partly Cloudy
11:00 PM 50.0 °F 50.0 °F 100% 29.98 in 5.6 mi Variable 1.2 mph - N/A   Scattered Clouds
11:30 PM 50.0 °F 50.0 °F 100% 29.98 in 6.2 mi Variable 1.2 mph - N/A   Scattered Clouds